{"data":{"norad_id":55264,"intl_designator":"2023-008B","name":"LDPE-3A","alt_names":[],"object_type":"PAYLOAD","status":"ACTIVE","operator":null,"country":"US","launch_date":"2023-01-15","launch_site_code":"AFETR","launch_vehicle":null,"mission":null,"orbit_class":"UNKNOWN","rcs_meters":null,"size_class":null,"mass_kg":null,"dimensions":null,"purposes":["comms"],"wikipedia_slug":null,"has_3d_model":false,"image_url":null,"decayed_at":null,"tle_current":{"epoch":"2026-05-25T03:40:02.701056Z","epoch_age_seconds":68747,"freshness":"FRESH","line1":"1 55264U 23008B   26145.15280904 -.00000226  00000+0  00000+0 0  9991","line2":"2 55264   2.2900  81.9360 0000834  35.8261 164.1536  0.99151105 11586","mean_motion":0.99151105,"eccentricity":8.34e-5,"inclination_deg":2.29,"raan_deg":81.936,"arg_perigee_deg":35.8261,"mean_anomaly_deg":164.1536,"bstar":0,"rev_number":1158,"period_min":1452.3287461093,"perigee_km":36100.17468623,"apogee_km":36107.260659589,"semimajor_km":42481.854672909,"source":"CELESTRAK","updated_at":"2026-05-25T13:38:14.138126Z"}}}